Regional Weather Roundup
Issued by NWS

Home | Current Version | Previous Version | Graphics & Text | Print | Product List | Glossary Off
Versions: 1 2 3 4 5 6 7 8 9 10 11 12 13 14 15 16 17 18 19 20 21 22 23 24 25 26 27 28 29 30 31 32 33 34 35 36 37 38 39 40 41 42 43 44 45 46 47 48 49 50

000
ASUS43 KDMX 031207
RWRIA

WEATHER ROUNDUP FOR IOWA
NATIONAL WEATHER SERVICE DES MOINES IA
700 AM CDT SUN MAY 03 2015

NOTE: "FAIR" INDICATES FEW OR NO CLOUDS BELOW 12,000 FEET WITH NO
SIGNIFICANT WEATHER AND/OR OBSTRUCTIONS TO VISIBILITY.

* - THESE STATIONS ARE NOT NWS STATIONS...THUS NOT UNDER NWS
QUALITY CONTROL.  THEY ALSO DO NOT REPORT WEATHER SUCH
AS PRECIPITATION OR FOG.

IAZ001>003-012>014-020>022-031>034-043>046-031300-
   NORTHWEST IOWA

CITY           SKY/WX    TMP DP  RH WIND       PRES   REMARKS
CARROLL *      CLEAR     55  54  94 SE6       29.75R
CHEROKEE *     CLEAR     51  51 100 CALM      29.73R
DENISON *      CLEAR     59  57  94 S5        29.73R
LE MARS *      CLEAR     59  52  77 S6G13     29.72R
ORANGE CITY *  CLEAR     57  48  72 CALM      29.73R
SHELDON *      CLEAR     50  50 100 E5        29.73R
SIOUX CITY     CLEAR     58  51  78 E9        29.71R
6HR MIN TEMP:  56; 6HR MAX TEMP:  66;

SPENCER        PTCLDY    50  48  93 E7        29.75R FOG
6HR MIN TEMP:  50; 6HR MAX TEMP:  60;

STORM LAKE *   CLEAR     55  52  88 S12       29.75S
$$

IAZ055>058-069>071-079>083-090>094-031300-
   SOUTHWEST IOWA

CITY           SKY/WX    TMP DP  RH WIND       PRES   REMARKS
ATLANTIC *     CLEAR     61  55  82 S9        29.76R
AUDUBON *      CLEAR     55  52  88 CALM      29.78R
CLARINDA *     CLEAR     59  55  88 S8        29.82S
COUNCIL BLFS * CLEAR     63  59  88 S13G20    29.76R
CRESTON *      MOCLDY    59  57  94 S21       29.79F
HARLAN  *      CLEAR     61  61 100 S12       29.77S
LAMONI         CLOUDY    59  53  80 S12       29.84F
6HR MIN TEMP:  57; 6HR MAX TEMP:  60; 6HR PCP:  0.05;

RED OAK *      CLEAR     61  57  88 S12       29.77F
SHENANDOAH *   CLEAR     61  55  82 S13G18    29.79F
$$

IAZ047>049-059>061-072>074-084-031300-
   CENTRAL IOWA

CITY           SKY/WX    TMP DP  RH WIND       PRES   REMARKS
AMES           CLOUDY    58  52  80 E6        29.78R
6HR MIN TEMP:  56; 6HR MAX TEMP:  59; 6HR PCP:  0.01;

ANKENY *       MOCLDY    61  57  88 SW6       29.80R
CHARITON *     CLOUDY    61  54  77 S20G30    29.80F
DES MOINES     CLOUDY    60  56  86 N3        29.79R
6HR MIN TEMP:  60; 6HR MAX TEMP:  62; 6HR PCP:  0.02;

GRINNELL*      RAIN      57  52  82 S16G22    29.80F
KNOXVILLE *    CLOUDY    59  54  82 S13G20    29.77F
MARSHALLTOWN   CLOUDY    56  51  84 SE13      29.80S
6HR MIN TEMP:  55; 6HR MAX TEMP:  60; 6HR PCP:  0.16;

PELLA *        CLOUDY    57  56  95 SE12      29.80F
PERRY *        MOCLDY    59  55  88 S10       29.76R
$$

IAZ004>006-015-016-023>025-035-036-031300-
   NORTH CENTRAL IOWA

CITY           SKY/WX    TMP DP  RH WIND       PRES   REMARKS
ALGONA *       CLEAR     55  52  88 SE13      29.76R
CLARION *      CLEAR     57  54  88 SE12      29.78R
ESTHERVILLE    MOCLDY    49  48  97 S7        29.75R
6HR MIN TEMP:  49; 6HR MAX TEMP:  58;

FORT DODGE *   CLOUDY    54  48  82 SE8       29.77R
MASON CITY     CLOUDY    56  52  86 S12       29.78S
6HR MIN TEMP:  54; 6HR MAX TEMP:  56;

FOREST CITY *  CLEAR     55  50  82 S9        29.77S
IOWA FALLS *   CLOUDY    55  52  88 SE14      29.79S
$$

IAZ007>011-017>019-026>030-037>042-050>054-066-031300-
   NORTHEAST IOWA

CITY           SKY/WX    TMP DP  RH WIND       PRES   REMARKS
CEDAR RAPIDS   CLOUDY    61  50  67 S18       29.86S
CHARLES CITY * MOCLDY    57  55  94 S10       29.79S
CLINTON *        N/A     57  46  67 S8        29.93S
DECORAH *      PTCLDY    59  48  67 S8G15     29.81S
DUBUQUE        CLOUDY    56  49  77 S16       29.88F
6HR MIN TEMP:  53; 6HR MAX TEMP:  59; 6HR PCP:  0.09;

MONTICELLO *   CLOUDY    59  55  88 SE10      29.86F
OELWEIN *      MOCLDY    59  50  72 S14       29.82S
WATERLOO       CLOUDY    57  52  83 S9        29.82R
6HR MIN TEMP:  56; 6HR MAX TEMP:  60; 6HR PCP:  0.02;

$$

IAZ064-065-067-068-078-031300-
   EAST CENTRAL IOWA

CITY           SKY/WX    TMP DP  RH WIND       PRES   REMARKS
DAVENPORT      CLOUDY    63  53  70 S13       29.92R
6HR MIN TEMP:  60; 6HR MAX TEMP:  63; 6HR PCP:  0.01;

IOWA CITY      CLOUDY    59  51  75 SE8       29.90S
6HR MIN TEMP:  55; 6HR MAX TEMP:  62; 6HR PCP:  0.08;

MT. PLEASANT * MOCLDY    57  48  72 S13       29.90S
MUSCATINE *    PTSUNNY   59  54  82 SE6       29.91S HAZE
QUAD CITIES    CLOUDY    60  54  80 S8        29.91S
6HR MIN TEMP:  57; 6HR MAX TEMP:  63; 6HR PCP:  0.20;

$$

IAZ062-063-075>077-085>089-095>099-031300-
   SOUTHEAST IOWA

CITY           SKY/WX    TMP DP  RH WIND       PRES   REMARKS
BURLINGTON     CLOUDY    58  48  69 S10       29.92S
6HR MIN TEMP:  58; 6HR MAX TEMP:  62;

FAIRFIELD *    MOCLDY    55  50  82 S6        29.89R
FORT MADISON * CLEAR     55  48  76 S8        29.93S
KEOKUK *       CLEAR     59  48  67 S10       29.92S
OSKALOOSA *      N/A     55  51  86 S10       29.86S
CENTERVILLE *  LGT RAIN  57  55  94 S8        29.89S
OTTUMWA        MOCLDY    57  52  83 S12       29.86S
6HR MIN TEMP:  55; 6HR MAX TEMP:  58; 6HR PCP: TRACE;

WASHINGTON *   MOCLDY    57  57 100 S10       29.89R
$$

ABBREVIATIONS USED IN REMARKS
   TC - TEMPERATURES IN CELSIUS
  WCI - WIND CHILL INDEX
   HX - HEAT INDEX
  VSB - VISIBILITY
$$




USA.gov is the U.S. government's official web portal to all federal, state and local government web resources and services.